Kelso-Longview, WA
on Sunday, December 16, 2012

Sunday
Previous Day Next Day
Daily Summary
 ActualAverage (KSPB)Record (KSPB)
Temperature
Mean Temperature °F °F  
Max Temperature 46°F °F 54°F (2001)
Min Temperature 37°F °F 12°F (2008)
Degree Days
Heating Degree Days 24    
Month to date heating degree days  
Since 1 July heating degree days  
Cooling Degree Days 0    
Month to date cooling degree days  
Year to date cooling degree days  
Moisture
Dew Point 38°F   
Average Humidity 84    
Maximum Humidity 87    
Minimum Humidity 76    
Precipitation
Precipitation 0.96 in in 1.57 in (2001)
Month to date precipitation  
Year to date precipitation  
Wind
Wind Speed 10 mph   
Max Wind Speed 26 mph   
Max Gust Speed 39 mph   
Visibility 10 miles   
Events     

Key: T is trace of precipitation, MM is missing value
Source: NWS Daily Summary
Time(PST)TemperatureDew PointHumidity Pressure Visibility Wind DirectionWind SpeedGust SpeedPrecipitationEvents Conditions
12:15 AM 37.4°F 33.8°F 87% 29.80 in 10.0 miles SSE 4.6 mph - N/A   Overcast
12:55 AM 37.4°F 33.8°F 87% 29.82 in 10.0 miles South 5.8 mph - 0.01 in   Mostly Cloudy
1:15 AM 37.4°F 33.8°F 87% 29.82 in 10.0 miles SSE 8.1 mph - N/A   Overcast
1:35 AM 37.4°F 33.8°F 87% 29.81 in 10.0 miles SE 9.2 mph - N/A   Overcast
1:55 AM 37.4°F 33.8°F 87% 29.81 in 10.0 miles SE 12.7 mph 16.1 mph N/A   Overcast
2:15 AM 37.4°F 33.8°F 87% 29.82 in 10.0 miles SSE 8.1 mph - 0.01 in   Overcast
2:35 AM 37.4°F 33.8°F 87% 29.81 in 10.0 miles SE 9.2 mph - 0.02 in   Overcast
2:55 AM 39.2°F 33.8°F 81% 29.82 in 10.0 miles SE 9.2 mph - 0.02 in   Overcast
3:15 AM 39.2°F 33.8°F 81% 29.82 in 10.0 miles SE 8.1 mph - N/A   Overcast
3:35 AM 39.2°F 33.8°F 81% 29.82 in 10.0 miles SE 8.1 mph - N/A   Overcast
3:55 AM 39.2°F 35.6°F 87% 29.81 in 10.0 miles SE 10.4 mph - N/A   Overcast
4:15 AM 39.2°F 35.6°F 87% 29.82 in 10.0 miles WSW 6.9 mph - N/A   Overcast
4:35 AM 39.2°F 33.8°F 81% 29.82 in 10.0 miles SSE 4.6 mph - N/A   Overcast
4:55 AM 39.2°F 35.6°F 87% 29.81 in 10.0 miles SE 3.5 mph - N/A   Overcast
5:15 AM 39.2°F 35.6°F 87% 29.81 in 10.0 miles SE 9.2 mph - N/A   Overcast
5:35 AM 39.2°F 35.6°F 87% 29.80 in 10.0 miles SE 10.4 mph - N/A   Overcast
5:55 AM 39.2°F 35.6°F 87% 29.81 in 9.0 miles SSE 9.2 mph - 0.03 in   Overcast
6:15 AM 39.2°F 35.6°F 87% 29.81 in 10.0 miles SE 3.5 mph - 0.04 in   Overcast
6:35 AM 39.2°F 35.6°F 87% 29.80 in 10.0 miles SE 5.8 mph - 0.05 in   Overcast
6:55 AM 39.2°F 35.6°F 87% 29.79 in 10.0 miles SE 10.4 mph - 0.06 in   Overcast
7:15 AM 39.2°F 35.6°F 87% 29.79 in 10.0 miles SE 11.5 mph - N/A   Overcast
7:35 AM 39.2°F 35.6°F 87% 29.78 in 10.0 miles SE 9.2 mph 16.1 mph N/A   Mostly Cloudy
7:55 AM 39.2°F 35.6°F 87% 29.78 in 10.0 miles SE 10.4 mph - N/A   Mostly Cloudy
8:15 AM 39.2°F 35.6°F 87% 29.78 in 10.0 miles SE 10.4 mph - N/A   Overcast
8:35 AM 39.2°F 35.6°F 87% 29.77 in 10.0 miles SE 10.4 mph - N/A   Overcast
8:55 AM 39.2°F 35.6°F 87% 29.77 in 10.0 miles SE 9.2 mph - N/A   Overcast
9:15 AM 41.0°F 35.6°F 81% 29.75 in 10.0 miles SE 12.7 mph 17.3 mph N/A   Overcast
9:35 AM 41.0°F 35.6°F 81% 29.75 in 10.0 miles SE 10.4 mph 16.1 mph 0.01 in   Overcast
9:55 AM 41.0°F 37.4°F 87% 29.75 in 10.0 miles SE 12.7 mph 17.3 mph 0.02 in   Overcast
10:15 AM 41.0°F 37.4°F 87% 29.73 in 10.0 miles SE 16.1 mph 19.6 mph N/A   Overcast
10:35 AM 41.0°F 37.4°F 87% 29.72 in 10.0 miles SE 12.7 mph 20.7 mph 0.01 in   Overcast
10:55 AM 42.8°F 37.4°F 81% 29.71 in 10.0 miles SE 13.8 mph 20.7 mph 0.02 in   Overcast
11:15 AM 42.8°F 37.4°F 81% 29.69 in 10.0 miles SE 12.7 mph - 0.01 in   Overcast
11:35 AM 42.8°F 37.4°F 81% 29.67 in 10.0 miles SE 10.4 mph 24.2 mph 0.01 in   Overcast
11:55 AM 42.8°F 37.4°F 81% 29.66 in 10.0 miles SSE 16.1 mph 21.9 mph 0.02 in   Overcast
12:15 PM 42.8°F 37.4°F 81% 29.63 in 10.0 miles SE 13.8 mph 20.7 mph 0.02 in   Overcast
12:35 PM 42.8°F 37.4°F 81% 29.61 in 10.0 miles SE 15.0 mph 21.9 mph 0.02 in   Overcast
12:55 PM 42.8°F 37.4°F 81% 29.58 in 10.0 miles SE 12.7 mph 20.7 mph 0.03 in   Overcast
1:15 PM 42.8°F 37.4°F 81% 29.55 in 10.0 miles SE 16.1 mph 25.3 mph N/A   Overcast
1:35 PM 42.8°F 37.4°F 81% 29.52 in 10.0 miles SE 15.0 mph 29.9 mph 0.01 in   Overcast
2:15 PM 42.8°F 37.4°F 81% 29.45 in 10.0 miles SE 21.9 mph 27.6 mph 0.04 in   Overcast
2:35 PM 42.8°F 35.6°F 76% 29.42 in 10.0 miles SE 12.7 mph 24.2 mph 0.05 in   Overcast
2:55 PM 42.8°F 35.6°F 76% 29.37 in 9.0 miles SSE 20.7 mph 28.8 mph 0.06 in   Overcast
3:15 PM 42.8°F 37.4°F 81% 29.34 in 10.0 miles SE 19.6 mph 29.9 mph 0.01 in   Overcast
3:35 PM 42.8°F 37.4°F 81% 29.31 in 7.0 miles SSE 19.6 mph 38.0 mph 0.02 in   Overcast
3:55 PM 44.6°F 37.4°F 76% 29.30 in 8.0 miles SSE 17.3 mph 33.4 mph 0.03 in   Overcast
4:15 PM 44.6°F 37.4°F 76% 29.28 in 8.0 miles SSE 15.0 mph 26.5 mph 0.01 in   Overcast
4:35 PM 44.6°F 37.4°F 76% 29.25 in 10.0 miles SSE 18.4 mph 31.1 mph 0.03 in   Overcast
4:55 PM 44.6°F 39.2°F 81% 29.23 in 10.0 miles SE 23.0 mph 34.5 mph 0.03 in   Overcast
5:15 PM 44.6°F 39.2°F 81% 29.19 in 7.0 miles SE 20.7 mph 33.4 mph 0.09 in   Overcast
5:35 PM 46.4°F 39.2°F 76% 29.17 in 10.0 miles SSE 26.5 mph 36.8 mph 0.14 in   Overcast
5:55 PM 46.4°F 41.0°F 81% 29.17 in 8.0 miles SSE 15.0 mph 29.9 mph 0.18 in   Overcast
6:15 PM 46.4°F 41.0°F 81% 29.12 in 7.0 miles SSE 19.6 mph 34.5 mph 0.09 in   Overcast
6:35 PM 46.4°F 41.0°F 81% 29.10 in 10.0 miles SSE 18.4 mph 31.1 mph 0.11 in   Overcast
6:55 PM 46.4°F 42.8°F 87% 29.13 in 5.0 miles SSE 16.1 mph 39.1 mph 0.15 in   Overcast
7:15 PM 46.4°F 42.8°F 87% 29.15 in 8.0 miles SSE 13.8 mph 23.0 mph 0.08 in   Overcast
7:35 PM 46.4°F 42.8°F 87% 29.15 in 9.0 miles SE 12.7 mph 17.3 mph 0.12 in   Overcast
7:55 PM 46.4°F 42.8°F 87% 29.14 in 9.0 miles SSE 10.4 mph - 0.16 in   Overcast
8:15 PM 46.4°F 42.8°F 87% 29.13 in 10.0 miles South 10.4 mph - 0.01 in   Overcast
8:35 PM 46.4°F 42.8°F 87% 29.14 in 9.0 miles SSE 11.5 mph - 0.03 in   Overcast
8:55 PM 46.4°F 42.8°F 87% 29.14 in 9.0 miles SSE 13.8 mph 18.4 mph 0.04 in   Overcast
9:15 PM 46.4°F 42.8°F 87% 29.11 in 10.0 miles SSE 6.9 mph - N/A   Scattered Clouds
9:55 PM 46.4°F 42.8°F 87% 29.12 in 9.0 miles SSE 9.2 mph 16.1 mph 0.07 in   Overcast
10:15 PM 46.4°F 42.8°F 87% 29.09 in 10.0 miles SE 11.5 mph 16.1 mph 0.01 in   Overcast
10:35 PM 46.4°F 42.8°F 87% 29.08 in 10.0 miles SSE 11.5 mph 20.7 mph 0.02 in   Overcast
10:55 PM 46.4°F 42.8°F 87% 29.07 in 10.0 miles SSE 10.4 mph 21.9 mph 0.02 in   Mostly Cloudy
11:15 PM 46.4°F 42.8°F 87% 29.07 in 10.0 miles SSE 13.8 mph 21.9 mph N/A   Mostly Cloudy
11:35 PM 46.4°F 42.8°F 87% 29.09 in 10.0 miles SSE 15.0 mph 23.0 mph N/A   Mostly Cloudy
11:55 PM 46.4°F 42.8°F 87% 29.09 in 10.0 miles SSE 12.7 mph 19.6 mph N/A   Overcast
Moon Phase
Dec. 16 Dec. 20 Dec. 28 Jan. 04 Jan. 11
Sunrise:07:48 AM (PST) Moon Rise:10:15 AM (PST)12/16
Sunset:04:26 PM (PST) Moon Set:08:59 PM (PST)12/16

Copyright © 2014 The Weather Underground, Inc.